TimeMDT,TemperatureF,Dew PointF,Humidity,Sea Level PressureIn,VisibilityMPH,Wind Direction,Wind SpeedMPH,Gust SpeedMPH,PrecipitationIn,Events,Conditions,WindDirDegrees,DateUTC
12:53 AM,72.0,48.0,43,29.82,10.0,NE,9.2,-,N/A,,Clear,50,2013-07-22 06:53:00
1:53 AM,66.9,48.0,51,29.81,10.0,NE,6.9,-,N/A,,Clear,40,2013-07-22 07:53:00
2:53 AM,64.9,48.0,54,29.81,10.0,North,5.8,-,N/A,,Clear,10,2013-07-22 08:53:00
3:53 AM,63.0,48.0,58,29.80,10.0,North,4.6,-,N/A,,Clear,350,2013-07-22 09:53:00
4:53 AM,63.0,48.0,58,29.80,10.0,Calm,Calm,-,N/A,,Clear,0,2013-07-22 10:53:00
5:53 AM,64.9,48.0,54,29.80,10.0,Calm,Calm,-,N/A,,Clear,0,2013-07-22 11:53:00
6:53 AM,66.0,48.9,54,29.81,10.0,Calm,Calm,-,N/A,,Clear,0,2013-07-22 12:53:00
7:53 AM,64.9,50.0,58,29.82,10.0,WSW,6.9,-,N/A,,Clear,240,2013-07-22 13:53:00
8:53 AM,66.9,52.0,59,29.83,10.0,SSW,6.9,-,N/A,,Clear,210,2013-07-22 14:53:00
9:53 AM,72.0,52.0,49,29.81,10.0,SW,9.2,-,N/A,,Clear,220,2013-07-22 15:53:00
10:53 AM,75.9,52.0,43,29.80,10.0,SW,9.2,-,N/A,,Clear,230,2013-07-22 16:53:00
11:53 AM,82.0,53.1,37,29.79,10.0,South,8.1,-,N/A,,Clear,180,2013-07-22 17:53:00
12:53 PM,84.9,52.0,32,29.77,10.0,South,8.1,-,N/A,,Partly Cloudy,180,2013-07-22 18:53:00
1:53 PM,89.1,50.0,26,29.76,10.0,WSW,6.9,-,N/A,,Partly Cloudy,250,2013-07-22 19:53:00
2:53 PM,93.0,39.9,16,29.75,10.0,ESE,4.6,-,N/A,,Partly Cloudy,110,2013-07-22 20:53:00
3:53 PM,93.9,32.0,11,29.73,10.0,Variable,4.6,-,N/A,,Partly Cloudy,0,2013-07-22 21:53:00
4:53 PM,93.9,37.0,14,29.71,10.0,ENE,8.1,-,N/A,,Partly Cloudy,70,2013-07-22 22:53:00
5:53 PM,95.0,34.0,12,29.71,10.0,NE,8.1,-,N/A,,Partly Cloudy,40,2013-07-22 23:53:00
6:53 PM,93.9,27.0,9,29.72,10.0,North,20.7,-,N/A,,Partly Cloudy,350,2013-07-23 00:53:00
7:53 PM,88.0,42.1,20,29.76,10.0,NNE,19.6,27.6,N/A,,Partly Cloudy,30,2013-07-23 01:53:00
8:53 PM,82.9,39.9,22,29.79,10.0,NNE,12.7,-,N/A,,Clear,20,2013-07-23 02:53:00
9:53 PM,80.1,39.0,23,29.83,10.0,North,13.8,-,N/A,,Clear,10,2013-07-23 03:53:00
10:53 PM,77.0,39.0,25,29.86,10.0,North,11.5,-,N/A,,Partly Cloudy,10,2013-07-23 04:53:00
11:53 PM,73.9,41.0,30,29.89,10.0,North,10.4,-,N/A,,Clear,350,2013-07-23 05:53:00